Preview of NWS' New Version of Forecast
This preview is not operational and should not be used for support decisions.

Regional Weather Roundup (RWR)

Issued by National Weather Service (NWS)

                            
000
ASUS45 KCYS 241410
RWRWY 

WYOMING REGIONAL WEATHER ROUNDUP
NATIONAL WEATHER SERVICE CHEYENNE WY
800 AM MDT FRI MAY 24 2019

NOTE:  "FAIR" INDICATES FEW OR NO CLOUDS BELOW 12,000 FEET
WITH NO SIGNIFICANT WEATHER AND/OR OBSTRUCTIONS TO VISIBILITY.

WYZ001-241500-
YELLOWSTONE NATIONAL PARK
  
CITY           SKY/WX    TMP DP  RH WIND       PRES   REMARKS
LK YELLOWSTONE NOT AVBL                                               
W YELLOWSTONE  NOT AVBL                                               

$$
WYZ002>013-054>058-071-098>099-241500-
NORTHERN WYOMING
  
CITY           SKY/WX    TMP DP  RH WIND       PRES   REMARKS
JACKSON        LGT RAIN  37  36  93 SW8       29.90R WCI  31          
CODY           CLOUDY    40  37  89 S3        29.80R                  
GREYBULL       LGT RAIN  39  38  96 E9        29.80S WCI  33          
WORLAND        LGT RAIN  41  40  96 S7        29.80S                  
SHERIDAN       CLOUDY    44  39  82 NW18G24   29.72R                  
BUFFALO        CLOUDY    42  39  89 N7        29.73R                  
GILLETTE       FAIR      44  40  85 W16       29.71R                  
HULETT         DRIZZLE   43  39  87 SW14G23   29.67                   
NEWCASTLE      PTSUNNY   43  36  75 CALM      29.74                   

$$
WYZ014>020-022>026-101>103-241500-
CENTRAL WYOMING
  
CITY           SKY/WX    TMP DP  RH WIND       PRES   REMARKS
BIG PINEY      CLOUDY    35  31  85 E3        29.93S                  
PINEDALE       CLOUDY    34  32  93 CALM      29.95                   
DUBOIS         PTSUNNY   37  30  75 NW9G22    29.82  WCI  31          
LANDER         FAIR      38  35  89 SE5       29.81S WCI  34          
RIVERTON       FAIR      38  35  89 SW7       29.82S WCI  33          
CASPER         FAIR      44  36  73 SW28G37   29.81R                  
DOUGLAS        FAIR      51  35  54 W35G47    29.77S                  

$$
WYZ021-027>030-104>119-241500-
SOUTHERN WYOMING
  
CITY           SKY/WX    TMP DP  RH WIND       PRES   REMARKS
EVANSTON       PTSUNNY   38  35  89 SW18      29.96S WCI  28          
KEMMERER       LGT SNOW  34  32  93 SW7       29.96  WCI  28          
ROCK SPRINGS   FAIR      39  34  82 SW9       29.97R WCI  33          
DIXON          CLOUDY    43  30  59 S25G32    30.03R                  
RAWLINS        LGT RAIN  42  33  70 SW30G45   29.92S                  
SARATOGA       FAIR      41  30  65 SW25G31   29.96R                  
LARAMIE        FAIR      43  27  53 SW30G41   29.91S                  
CHEYENNE       FAIR      49  30  48 SW16G25   29.87S                  
TORRINGTON     NOT AVBL                                               
PINE BLUFFS    FAIR      41  41 100 S9        29.91S                  

$$